TimeMST,TemperatureF,Dew PointF,Humidity,Sea Level PressureIn,VisibilityMPH,Wind Direction,Wind SpeedMPH,Gust SpeedMPH,PrecipitationIn,Events,Conditions,WindDirDegrees,DateUTC
12:55 AM,60.1,30.0,32,29.90,10.0,NNE,3.5,-,N/A,,Clear,30,2012-12-08 07:55:00
1:55 AM,60.1,30.0,32,29.90,10.0,East,3.5,-,N/A,,Clear,100,2012-12-08 08:55:00
2:55 AM,57.0,30.9,37,29.90,10.0,Calm,Calm,-,N/A,,Clear,0,2012-12-08 09:55:00
3:55 AM,55.0,30.9,40,29.89,10.0,Calm,Calm,-,N/A,,Clear,0,2012-12-08 10:55:00
4:55 AM,53.1,32.0,45,29.89,10.0,Calm,Calm,-,N/A,,Clear,0,2012-12-08 11:55:00
5:55 AM,52.0,32.0,47,29.90,10.0,NE,3.5,-,N/A,,Clear,40,2012-12-08 12:55:00
6:55 AM,51.1,30.9,46,29.91,10.0,Calm,Calm,-,N/A,,Clear,0,2012-12-08 13:55:00
7:55 AM,53.1,32.0,45,29.92,10.0,Calm,Calm,-,N/A,,Clear,0,2012-12-08 14:55:00
8:55 AM,57.9,30.9,36,29.94,10.0,Calm,Calm,-,N/A,,Clear,0,2012-12-08 15:55:00
9:55 AM,66.0,25.0,21,29.95,10.0,ENE,5.8,-,N/A,,Partly Cloudy,70,2012-12-08 16:55:00
10:55 AM,69.1,27.0,21,29.95,10.0,NE,4.6,-,N/A,,Partly Cloudy,40,2012-12-08 17:55:00
11:55 AM,72.0,24.1,17,29.93,10.0,Calm,Calm,-,N/A,,Partly Cloudy,0,2012-12-08 18:55:00
12:55 PM,75.0,24.1,15,29.90,10.0,NNE,4.6,-,N/A,,Partly Cloudy,20,2012-12-08 19:55:00
1:55 PM,75.0,28.0,18,29.88,10.0,Calm,Calm,-,N/A,,Scattered Clouds,0,2012-12-08 20:55:00
2:55 PM,75.9,27.0,16,29.86,10.0,Calm,Calm,-,N/A,,Scattered Clouds,0,2012-12-08 21:55:00
3:55 PM,75.9,25.0,15,29.86,10.0,Calm,Calm,-,N/A,,Scattered Clouds,0,2012-12-08 22:55:00
4:55 PM,73.9,21.9,14,29.86,10.0,Calm,Calm,-,N/A,,Mostly Cloudy,0,2012-12-08 23:55:00
5:55 PM,68.0,33.1,27,29.86,10.0,South,3.5,-,N/A,,Scattered Clouds,190,2012-12-09 00:55:00
6:55 PM,66.0,30.0,26,29.87,10.0,Calm,Calm,-,N/A,,Scattered Clouds,0,2012-12-09 01:55:00
7:55 PM,60.1,35.1,39,29.88,10.0,Calm,Calm,-,N/A,,Scattered Clouds,0,2012-12-09 02:55:00
8:55 PM,60.1,34.0,38,29.89,10.0,Calm,Calm,-,N/A,,Scattered Clouds,0,2012-12-09 03:55:00
9:55 PM,57.0,30.9,37,29.90,10.0,Calm,Calm,-,N/A,,Scattered Clouds,0,2012-12-09 04:55:00
10:55 PM,55.9,32.0,40,29.92,10.0,Calm,Calm,-,N/A,,Scattered Clouds,0,2012-12-09 05:55:00
11:55 PM,55.0,30.0,38,29.91,10.0,Calm,Calm,-,N/A,,Scattered Clouds,0,2012-12-09 06:55:00